DW3611 Weather Reports


Display with metric or nautical units.
time (UTC)temp
F
wind
direction
speed
MPH
gust
MPH
rain 1hr
in
rain 24hr
in
rain mn
in
humidity
%
barometer
mb
20260831030510 85 360 1.0 6.0 0.00 0.00 0.00 65 1015.3
20260831030043 85 101 2.0 6.0 0.00 0.00 0.00 65 1015.3
20260831025515 85 360 1.0 5.0 0.00 0.00 0.00 65 1015.2
20260831025004 85 360 1.0 6.0 0.00 0.00 0.00 64 1015.1
20260831024504 85 360 2.0 7.0 0.00 0.00 0.00 64 1015.1
20260831024003 86 360 2.0 7.0 0.00 0.00 0.00 64 1015.1
20260831023505 86 360 2.0 7.0 0.00 0.00 0.00 63 1015.1
20260831023030 86 161 1.0 7.0 0.00 0.00 0.00 63 1014.8
20260831022519 86 248 2.0 9.0 0.00 0.00 0.00 63 1014.8
20260831022007 86 249 3.0 10.0 0.00 0.00 0.00 62 1014.7
20260831021510 87 117 3.0 10.0 0.00 0.00 0.00 62 1014.7
20260831021008 87 249 2.0 8.0 0.00 0.00 0.00 62 1014.6
20260831020510 87 188 3.0 8.0 0.00 0.00 0.00 62 1014.5
20260831020019 87 198 2.0 6.0 0.00 0.00 0.00 61 1014.4
20260831015511 88 215 2.0 6.0 0.00 0.00 0.00 61 1014.3
20260831015014 88 212 1.0 5.0 0.00 0.00 0.00 60 1014.2
20260831014536 88 240 1.0 6.0 0.00 0.00 0.00 60 1014.2
20260831014015 88 173 2.0 6.0 0.00 0.00 0.00 60 1014.3
20260831013514 88 242 1.0 6.0 0.00 0.00 0.00 59 1014.1
20260831013008 89 257 2.0 5.0 0.00 0.00 0.00 58 1014.1
20260831012516 89 178 0.0 8.0 0.00 0.00 0.00 58 1014.0
20260831012018 89 139 2.0 10.0 0.00 0.00 0.00 57 1014.0
20260831011512 90 221 3.0 10.0 0.00 0.00 0.00 56 1014.0
20260831011015 90 232 3.0 5.0 0.00 0.00 0.00 55 1014.0
20260831010511 91 240 0.0 3.0 0.00 0.00 0.00 54 1013.9
20260831010039 91 202 0.0 1.0 0.00 0.00 0.00 52 1013.7
20260831005541 92 202 0.0 2.0 0.00 0.00 0.00 52 1013.6
20260831005020 92 202 0.0 2.0 0.00 0.00 0.00 52 1013.7
20260831004534 92 202 0.0 1.0 0.00 0.00 0.00 50 1013.7
20260831004015 92 202 0.0 2.0 0.00 0.00 0.00 50 1013.6
20260831003519 92 202 0.0 2.0 0.00 0.00 0.00 49 1013.7
20260831003035 93 202 0.0 3.0 0.00 0.00 0.00 49 1013.7
20260831002514 93 182 0.0 4.0 0.00 0.00 0.00 49 1013.6
20260831002016 92 191 0.0 4.0 0.00 0.00 0.00 49 1013.8
20260831001534 93 221 1.0 4.0 0.00 0.00 0.00 48 1013.8
20260831001007 93 187 0.0 6.0 0.00 0.00 0.00 48 1013.7
20260831000516 93 221 2.0 6.0 0.00 0.00 0.00 47 1013.8
20260831000037 94 205 0.0 5.0 0.00 0.00 0.00 46 1013.8
20260830235507 94 187 2.0 5.0 0.00 0.00 0.00 45 1013.7
20260830235018 94 252 1.0 4.0 0.00 0.00 0.00 44 1013.7
20260830234533 94 103 0.0 1.0 0.00 0.00 0.00 46 1013.7
20260830234013 94 82 0.0 2.0 0.00 0.00 0.00 43 1013.7
20260830233519 95 30 0.0 3.0 0.00 0.00 0.00 43 1013.7
20260830233035 95 165 0.0 3.0 0.00 0.00 0.00 41 1013.7
20260830232516 95 194 0.0 4.0 0.00 0.00 0.00 44 1013.7
20260830232016 95 53 1.0 4.0 0.00 0.00 0.00 42 1013.7
20260830231527 95 327 1.0 4.0 0.00 0.00 0.00 44 1013.8
20260830231017 95 49 0.0 3.0 0.00 0.00 0.00 44 1013.8
20260830230515 95 49 1.0 4.0 0.00 0.00 0.00 43 1013.7
20260830230033 95 193 1.0 4.0 0.00 0.00 0.00 44 1013.7
20260830225520 95 52 1.0 4.0 0.00 0.00 0.00 45 1013.7
20260830225031 95 55 1.0 4.0 0.00 0.00 0.00 44 1013.7
20260830224534 95 83 2.0 4.0 0.00 0.00 0.00 45 1013.8
20260830224010 95 42 2.0 4.0 0.00 0.00 0.00 46 1013.8
20260830223516 95 69 0.0 4.0 0.00 0.00 0.00 46 1013.7
20260830223021 95 26 1.0 5.0 0.00 0.00 0.00 45 1013.7
20260830222518 95 55 1.0 5.0 0.00 0.00 0.00 46 1013.7
20260830222016 95 49 1.0 4.0 0.00 0.00 0.00 44 1013.6
20260830221529 95 191 0.0 2.0 0.00 0.00 0.00 45 1013.7
20260830221021 96 194 0.0 5.0 0.00 0.00 0.00 45 1013.7
20260830220519 97 186 1.0 5.0 0.00 0.00 0.00 41 1013.7
20260830220054 98 147 1.0 5.0 0.00 0.00 0.00 42 1013.7
20260830215520 98 155 1.0 6.0 0.00 0.00 0.00 43 1013.7
20260830215016 97 219 1.0 7.0 0.00 0.00 0.00 41 1013.8
20260830214534 97 167 2.0 7.0 0.00 0.00 0.00 42 1013.8
20260830214017 97 277 2.0 6.0 0.00 0.00 0.00 42 1013.9
20260830213510 97 159 2.0 6.0 0.00 0.00 0.00 42 1013.9
20260830213021 96 194 0.0 3.0 0.00 0.00 0.00 44 1013.9
20260830212513 95 178 1.0 5.0 0.00 0.00 0.00 44 1014.0
20260830212015 94 221 2.0 5.0 0.00 0.00 0.00 46 1014.1
20260830211535 94 195 0.0 2.0 0.00 0.00 0.00 47 1014.2
20260830211016 94 157 0.0 2.0 0.00 0.00 0.00 48 1014.3
20260830210516 94 211 0.0 2.0 0.00 0.00 0.00 48 1014.4
20260830210052 94 264 0.0 3.0 0.00 0.00 0.00 47 1014.4
20260830205523 94 288 0.0 4.0 0.00 0.00 0.00 48 1014.5
20260830205020 94 208 1.0 5.0 0.00 0.00 0.00 47 1014.6
20260830204549 95 259 0.0 5.0 0.00 0.00 0.00 46 1014.7
20260830204020 95 229 1.0 4.0 0.00 0.00 0.00 46 1014.8
20260830203518 95 75 1.0 4.0 0.00 0.00 0.00 45 1014.9
20260830203034 96 139 1.0 5.0 0.00 0.00 0.00 43 1015.0
20260830202516 97 153 1.0 5.0 0.00 0.00 0.00 42 1015.0
20260830202017 96 131 0.0 4.0 0.00 0.00 0.00 42 1015.0
20260830201520 97 5 1.0 8.0 0.00 0.00 0.00 40 1015.0
20260830201019 98 160 0.0 8.0 0.00 0.00 0.00 39 1015.1
20260830200516 98 238 2.0 9.0 0.00 0.00 0.00 41 1015.0
20260830200035 99 165 5.0 9.0 0.00 0.00 0.00 40 1015.1
20260830195503 98 173 0.0 3.0 0.00 0.00 0.00 41 1015.2
20260830195003 97 5 0.0 3.0 0.00 0.00 0.00 44 1015.3
20260830194540 94 54 0.0 3.0 0.00 0.00 0.00 45 1015.4
20260830194005 94 38 1.0 4.0 0.00 0.00 0.00 46 1015.5
20260830193517 94 34 2.0 3.0 0.00 0.00 0.00 44 1015.6
20260830193007 94 59 0.0 0.0 0.00 0.00 0.00 47 1015.7
20260830192515 94 59 0.0 3.0 0.00 0.00 0.00 44 1015.8
20260830192009 94 57 0.0 3.0 0.00 0.00 0.00 43 1015.8
20260830191604 94 44 1.0 6.0 0.00 0.00 0.00 44 1016.0
20260830191002 94 352 0.0 6.0 0.00 0.00 0.00 46 1016.1
20260830190502 94 207 3.0 7.0 0.00 0.00 0.00 46 1016.2
20260830190003 94 186 2.0 7.0 0.00 0.00 0.00 44 1016.2
20260830185519 95 188 1.0 4.0 0.00 0.00 0.00 46 1016.3
20260830185006 97 350 1.0 9.0 0.00 0.00 0.00 44 1016.4
20260830184538 97 177 3.0 9.0 0.00 0.00 0.00 46 1016.3
20260830184018 96 49 2.0 7.0 0.00 0.00 0.00 46 1016.4
20260830183505 96 248 2.0 6.0 0.00 0.00 0.00 47 1016.5
20260830183033 95 210 1.0 8.0 0.00 0.00 0.00 46 1016.6
20260830182524 95 227 1.0 8.0 0.00 0.00 0.00 45 1016.6
20260830182010 95 11 1.0 6.0 0.00 0.00 0.00 49 1016.7
20260830181534 94 224 3.0 6.0 0.00 0.00 0.00 49 1016.8
20260830181010 94 231 0.0 7.0 0.00 0.00 0.00 46 1017.0
20260830180516 97 105 1.0 7.0 0.00 0.00 0.00 46 1017.0
20260830180038 97 199 1.0 6.0 0.00 0.00 0.00 45 1017.0
20260830175503 96 334 1.0 6.0 0.00 0.00 0.00 47 1017.1
20260830175018 95 264 2.0 6.0 0.00 0.00 0.00 49 1017.1
20260830174503 96 30 0.0 11.0 0.00 0.00 0.00 48 1017.2
20260830174018 94 261 3.0 11.0 0.00 0.00 0.00 48 1017.3
20260830173507 95 286 3.0 9.0 0.00 0.00 0.00 48 1017.4
20260830173027 95 75 1.0 6.0 0.00 0.00 0.00 49 1017.4
20260830172519 94 220 2.0 9.0 0.00 0.00 0.00 50 1017.6
20260830172023 93 144 2.0 11.0 0.00 0.00 0.00 50 1017.6
20260830171527 94 115 4.0 11.0 0.00 0.00 0.00 49 1017.6
20260830171018 95 229 3.0 7.0 0.00 0.00 0.00 51 1017.5
20260830170516 95 352 2.0 8.0 0.00 0.00 0.00 53 1017.6
20260830170037 93 342 2.0 8.0 0.00 0.00 0.00 50 1017.7
20260830165513 93 173 2.0 7.0 0.00 0.00 0.00 56 1017.7
20260830165015 94 174 3.0 7.0 0.00 0.00 0.00 53 1017.7
20260830164532 93 103 3.0 7.0 0.00 0.00 0.00 54 1017.8
20260830164023 92 222 2.0 7.0 0.00 0.00 0.00 56 1017.8
20260830163512 92 57 1.0 9.0 0.00 0.00 0.00 57 1017.8
20260830163013 91 265 2.0 9.0 0.00 0.00 0.00 55 1017.9
20260830162516 92 240 3.0 7.0 0.00 0.00 0.00 58 1017.8
20260830162017 91 351 2.0 8.0 0.00 0.00 0.00 59 1017.9
20260830161507 91 252 3.0 8.0 0.00 0.00 0.00 59 1018.0
20260830161009 91 176 2.0 7.0 0.00 0.00 0.00 58 1017.9
20260830160508 91 186 2.0 8.0 0.00 0.00 0.00 61 1017.9
20260830160015 90 17 1.0 7.0 0.00 0.00 0.00 65 1018.0
20260830155521 89 282 4.0 7.0 0.00 0.00 0.00 62 1018.0
20260830155012 90 296 3.0 8.0 0.00 0.00 0.00 62 1018.0
20260830154538 89 223 4.0 8.0 0.00 0.00 0.00 63 1018.0
20260830154013 89 243 2.0 5.0 0.00 0.00 0.00 64 1018.0
20260830153512 88 192 3.0 6.0 0.00 0.00 0.00 66 1018.0
20260830153024 88 198 1.0 6.0 0.00 0.00 0.00 69 1018.0
20260830152521 88 185 3.0 8.0 0.00 0.00 0.00 69 1018.1
20260830152018 87 258 0.0 8.0 0.00 0.00 0.00 70 1018.0
20260830151530 87 247 2.0 5.0 0.00 0.00 0.00 73 1018.0
20260830151003 87 175 1.0 5.0 0.00 0.00 0.00 72 1018.0
20260830150516 86 175 2.0 5.0 0.00 0.00 0.00 74 1018.0
20260830150041 86 352 1.0 5.0 0.00 0.00 0.00 74 1017.9
20260830145520 85 332 1.0 5.0 0.00 0.00 0.00 74 1018.0
20260830145022 85 333 0.0 6.0 0.00 0.00 0.00 76 1018.1
20260830144542 84 247 2.0 7.0 0.00 0.00 0.00 78 1018.1
20260830144010 83 242 2.0 7.0 0.00 0.00 0.00 80 1018.1
20260830143519 82 257 1.0 6.0 0.00 0.00 0.00 84 1018.1
20260830143020 80 115 2.0 4.0 0.00 0.00 0.00 89 1018.1
20260830142516 79 360 2.0 4.0 0.00 0.00 0.00 90 1018.1
20260830142018 79 104 0.0 6.0 0.00 0.00 0.00 90 1018.1
20260830141533 79 128 2.0 6.0 0.00 0.00 0.00 91 1018.2
20260830141019 78 171 1.0 5.0 0.00 0.00 0.00 91 1018.2
20260830140517 78 76 2.0 4.0 0.00 0.00 0.00 91 1018.1
20260830140031 78 181 1.0 4.0 0.00 0.00 0.00 92 1018.1
20260830135507 77 236 1.0 3.0 0.00 0.00 0.00 91 1018.0
20260830135020 77 213 0.0 2.0 0.00 0.00 0.00 91 1018.1
20260830134512 77 360 0.0 2.0 0.00 0.00 0.00 91 1018.1
20260830134010 76 258 0.0 2.0 0.00 0.00 0.00 91 1018.1
20260830133511 76 257 0.0 2.0 0.00 0.00 0.00 91 1018.0
20260830133023 76 311 0.0 0.0 0.00 0.00 0.00 91 1017.9
20260830132515 76 352 0.0 0.0 0.00 0.00 0.00 91 1017.9
20260830132013 76 360 0.0 0.0 0.00 0.00 0.00 91 1017.9
20260830131544 75 360 0.0 0.0 0.00 0.00 0.00 91 1017.9
20260830131015 75 360 0.0 0.0 0.00 0.00 0.00 91 1017.9
20260830130516 75 360 0.0 0.0 0.00 0.00 0.00 90 1017.9
20260830130030 75 360 0.0 0.0 0.00 0.00 0.00 90 1017.7
20260830125519 75 360 0.0 0.0 0.00 0.00 0.00 90 1017.7
20260830125019 75 360 0.0 0.0 0.00 0.00 0.00 90 1017.7
20260830124533 75 360 0.0 0.0 0.00 0.00 0.00 90 1017.7
20260830124019 75 360 0.0 0.0 0.00 0.00 0.00 90 1017.6
20260830123510 75 360 0.0 0.0 0.00 0.00 0.00 90 1017.6
20260830123016 75 360 0.0 0.0 0.00 0.00 0.00 90 1017.5
20260830122519 75 360 0.0 0.0 0.00 0.00 0.00 90 1017.5
20260830122015 75 360 0.0 0.0 0.00 0.00 0.00 90 1017.5
20260830121524 75 360 0.0 2.0 0.00 0.00 0.00 90 1017.5
20260830121017 75 360 0.0 2.0 0.00 0.00 0.00 90 1017.4
20260830120512 75 360 0.0 2.0 0.00 0.00 0.00 90 1017.4
20260830120003 75 360 0.0 2.0 0.00 0.00 0.00 90 1017.4
20260830115505 75 360 0.0 1.0 0.00 0.00 0.00 90 1017.3
20260830115004 75 360 0.0 0.0 0.00 0.00 0.00 90 1017.3
20260830114508 75 360 0.0 0.0 0.00 0.00 0.00 90 1017.2
20260830114007 75 360 0.0 0.0 0.00 0.00 0.00 89 1017.1
20260830113508 76 360 0.0 0.0 0.00 0.00 0.00 89 1017.0
20260830113017 76 273 0.0 0.0 0.00 0.00 0.00 89 1017.1
20260830112512 76 273 0.0 0.0 0.00 0.00 0.00 90 1017.0
20260830112019 76 273 0.0 0.0 0.00 0.00 0.00 90 1017.0
20260830111527 76 248 0.0 0.0 0.00 0.00 0.00 90 1017.0
20260830111016 76 248 0.0 0.0 0.00 0.00 0.00 90 1017.0
20260830110518 76 248 0.0 0.0 0.00 0.00 0.00 89 1017.0
20260830110002 76 248 0.0 0.0 0.00 0.00 0.00 89 1017.0
20260830105502 76 248 0.0 0.0 0.00 0.00 0.00 89 1016.9
20260830105015 76 248 0.0 0.0 0.00 0.00 0.00 89 1016.9
20260830104505 76 248 0.0 0.0 0.00 0.00 0.00 89 1016.9
20260830104005 76 248 0.0 0.0 0.00 0.00 0.00 89 1016.8
20260830103507 76 248 0.0 0.0 0.00 0.00 0.00 89 1016.8
20260830103014 77 248 0.0 0.0 0.00 0.00 0.00 89 1016.7
20260830102507 77 248 0.0 0.0 0.00 0.00 0.00 89 1016.7
20260830102012 77 248 0.0 0.0 0.00 0.00 0.00 89 1016.8
20260830101516 77 248 0.0 0.0 0.00 0.00 0.00 89 1016.8
20260830101016 77 248 0.0 0.0 0.00 0.00 0.00 89 1016.7
20260830100512 77 248 0.0 0.0 0.00 0.00 0.00 89 1016.7
20260830100032 77 248 0.0 0.0 0.00 0.00 0.00 89 1016.6
20260830095515 77 248 0.0 1.0 0.00 0.00 0.00 89 1016.7
20260830095014 77 248 0.0 1.0 0.00 0.00 0.00 89 1016.7
20260830094504 77 248 0.0 1.0 0.00 0.00 0.00 89 1016.7
20260830094004 77 248 0.0 1.0 0.00 0.00 0.00 89 1016.6
20260830093508 78 249 0.0 2.0 0.00 0.00 0.00 89 1016.5
20260830093013 78 249 1.0 2.0 0.00 0.00 0.00 89 1016.5
20260830092505 78 197 0.0 2.0 0.00 0.00 0.00 89 1016.5
20260830092006 78 186 0.0 3.0 0.00 0.00 0.00 89 1016.5
20260830091518 78 232 1.0 3.0 0.00 0.00 0.00 89 1016.5
20260830091012 78 192 1.0 3.0 0.00 0.00 0.00 89 1016.5
20260830090518 78 249 0.0 4.0 0.00 0.00 0.00 88 1016.5
20260830090036 78 223 0.0 4.0 0.00 0.00 0.00 88 1016.5
20260830085512 78 243 1.0 4.0 0.00 0.00 0.00 88 1016.6
20260830085016 78 173 1.0 3.0 0.00 0.00 0.00 88 1016.5
20260830084530 78 205 0.0 3.0 0.00 0.00 0.00 88 1016.5
20260830084015 78 267 0.0 4.0 0.00 0.00 0.00 88 1016.5
20260830083516 78 229 1.0 5.0 0.00 0.00 0.00 88 1016.5
20260830083031 78 179 1.0 5.0 0.00 0.00 0.00 88 1016.4
20260830082503 78 189 1.0 4.0 0.00 0.00 0.00 87 1016.5
20260830082006 78 203 1.0 3.0 0.00 0.00 0.00 87 1016.6
20260830081527 78 219 1.0 3.0 0.00 0.00 0.00 87 1016.6
20260830081006 79 229 0.0 4.0 0.00 0.00 0.00 87 1016.6
20260830080511 79 254 0.0 4.0 0.00 0.00 0.00 87 1016.7
20260830080016 79 167 1.0 4.0 0.00 0.00 0.00 87 1016.7
20260830075510 79 181 0.0 5.0 0.00 0.00 0.00 87 1016.7
20260830075012 79 217 0.0 5.0 0.00 0.00 0.00 87 1016.6
20260830074539 79 190 1.0 3.0 0.00 0.00 0.00 86 1016.6
20260830074018 79 223 0.0 4.0 0.00 0.00 0.00 86 1016.5
20260830073514 79 186 1.0 4.0 0.00 0.00 0.00 86 1016.6
20260830073035 79 225 0.0 3.0 0.00 0.00 0.00 86 1016.6
20260830072519 79 242 1.0 7.0 0.00 0.00 0.00 86 1016.6
20260830072020 79 206 1.0 7.0 0.00 0.00 0.00 86 1016.8
20260830071533 79 200 1.0 5.0 0.00 0.00 0.00 85 1016.7
20260830071011 79 194 1.0 3.0 0.00 0.00 0.00 85 1016.6
20260830070510 79 217 0.0 3.0 0.00 0.00 0.00 85 1016.7
20260830070015 79 360 1.0 3.0 0.00 0.00 0.00 85 1016.6
20260830065512 79 360 0.0 2.0 0.00 0.00 0.00 84 1016.6
20260830065011 79 360 0.0 2.0 0.00 0.00 0.00 84 1016.6
20260830064515 79 360 0.0 3.0 0.00 0.00 0.00 84 1016.7
20260830064020 79 360 1.0 3.0 0.00 0.00 0.00 84 1016.7
20260830063516 80 360 1.0 4.0 0.00 0.00 0.00 84 1016.7
20260830063037 80 360 2.0 4.0 0.00 0.00 0.00 83 1016.6
20260830062519 80 237 0.0 4.0 0.00 0.00 0.00 83 1016.6
20260830062020 80 186 1.0 4.0 0.00 0.00 0.00 83 1016.6
20260830061532 80 160 1.0 4.0 0.00 0.00 0.00 82 1016.6
20260830061021 80 184 1.0 3.0 0.00 0.00 0.00 82 1016.6
20260830060516 80 219 1.0 5.0 0.00 0.00 0.00 82 1016.7
20260830060044 80 213 1.0 5.0 0.00 0.00 0.00 82 1016.7
20260830055520 80 177 2.0 5.0 0.00 0.00 0.00 81 1016.7
20260830055016 81 188 1.0 3.0 0.00 0.00 0.00 81 1016.7
20260830054504 81 192 1.0 3.0 0.00 0.00 0.00 80 1016.7
20260830054003 81 167 0.0 3.0 0.00 0.00 0.00 80 1016.7
20260830053503 81 201 1.0 3.0 0.00 0.00 0.00 80 1016.7
20260830053004 81 236 1.0 3.0 0.00 0.00 0.00 79 1016.5
20260830052503 81 222 0.0 3.0 0.00 0.00 0.00 79 1016.6
20260830052006 81 184 0.0 5.0 0.00 0.00 0.00 79 1016.6
20260830051504 81 190 1.0 5.0 0.00 0.00 0.00 79 1016.5
20260830051005 82 195 2.0 5.0 0.00 0.00 0.00 78 1016.5
20260830050504 82 175 1.0 5.0 0.00 0.00 0.00 78 1016.5
20260830050004 82 232 1.0 4.0 0.00 0.00 0.00 77 1016.5
20260830045503 82 158 1.0 4.0 0.00 0.00 0.00 77 1016.6
20260830045003 82 213 1.0 3.0 0.00 0.00 0.00 76 1016.5
20260830044504 82 58 0.0 4.0 0.00 0.00 0.00 76 1016.6
20260830044003 83 169 0.0 4.0 0.00 0.00 0.00 76 1016.5
20260830043504 83 126 0.0 5.0 0.00 0.00 0.00 75 1016.4
20260830043003 83 125 2.0 6.0 0.00 0.00 0.00 75 1016.4
20260830042504 83 211 2.0 6.0 0.00 0.00 0.00 75 1016.4
20260830042004 83 130 2.0 6.0 0.00 0.00 0.00 75 1016.4
20260830041506 83 202 2.0 6.0 0.00 0.00 0.00 74 1016.3
20260830041005 83 202 2.0 6.0 0.00 0.00 0.00 74 1016.2
20260830040505 83 221 2.0 9.0 0.00 0.00 0.00 73 1016.2
20260830040003 84 236 3.0 9.0 0.00 0.00 0.00 73 1016.2
20260830035503 84 150 3.0 7.0 0.00 0.00 0.00 72 1016.2
20260830035004 84 249 3.0 7.0 0.00 0.00 0.00 72 1016.2
20260830034504 84 157 2.0 8.0 0.00 0.00 0.00 71 1016.1
20260830034004 84 223 3.0 8.0 0.00 0.00 0.00 71 1016.0
20260830033503 85 190 2.0 7.0 0.00 0.00 0.00 71 1016.1
20260830033008 85 163 2.0 9.0 0.00 0.00 0.00 70 1016.0
20260830032503 85 217 2.0 9.0 0.00 0.00 0.00 70 1016.1
20260830032004 85 205 1.0 7.0 0.00 0.00 0.00 70 1016.1
20260830031508 85 178 2.0 8.0 0.00 0.00 0.00 69 1016.1
20260830031018 85 209 3.0 8.0 0.00 0.00 0.00 69 1016.0